Regional Weather Roundup
Issued by NWS

Home | Current Version | Previous Version | Text Only | Print | Product List | Glossary On
Versions: 1 2 3 4 5 6 7 8 9 10 11 12 13 14 15 16 17 18 19 20 21 22 23 24 25 26 27
000
ASUS42 KTBW 222117
RWRFL
FLORIDA REGIONAL WEATHER ROUNDUP
NATIONAL WEATHER SERVICE TAMPA BAY RUSKIN FL
500 PM EDT SUN APR 22 2018

NOTE: "FAIR" INDICATES FEW OR NO CLOUDS BELOW 12,000 FEET WITH NO
SIGNIFICANT WEATHER AND/OR OBSTRUCTIONS TO VISIBILITY.

FLZ001>010-012>015-112-114-115-222200-
PANHANDLE FLORIDA

CITY           SKY/WX    TMP DP  RH WIND       PRES   REMARKS
PENSACOLA      LGT RAIN  73  71  93 S29G37    29.85F FOG
PENSACOLA NAS  LGT RAIN  72  68  87 S23G35    29.87S
MILTON NAS     LGT RAIN  72  72 100 SE16      29.87  FOG
CRESTVIEW      LGT RAIN  71  68  90 S9        29.92F
DUKE FIELD     LGT RAIN  71  69  94 SE15G21   29.91F
VALPARAISO     LGT RAIN  70  68  94 SE10      29.91F FOG
MARY ESTHER    LGT RAIN  72  70  94 SE14      29.88
TRI COUNTY     HVY RAIN  70  70 100 VRB3      29.95S VSB 1/2
PANAMA CITY    CLOUDY    73  69  87 SE18      29.95F
TYNDALL AFB    PTSUNNY   73  69  86 SE25      29.94F
APALACHICOLA   PTSUNNY   74  70  87 S15G22    29.97F

STATION/POSITION SKY/WX   TEMP    WIND        PRES    WAVE   SWELL
                          AIR SEA DIR/SP/G            HT/PER HT/PER
                          (F)     (DEG/KT/KT) (MB)    (FT/S) (FT/S)
30.1N   87.6W              72     190/ 19/ 23 1011.4
29.2N   88.2W                 72  230/ 10/ 12 1012.4F   3/ 6   2/ 6
28.8N   86.0W              74 73  140/ 17/ 21 1013.0F   5/ 6
PANAMA CITY BEAC           71 70  140/ 21/ 25 1014.2F
TOWER C                    71     150/ 19/ 21 1014.6F

$$
FLZ011-016>038-118-127-128-134-139-239-222200-
NORTH FLORIDA

CITY           SKY/WX    TMP DP  RH WIND       PRES   REMARKS
MARIANNA       CLOUDY    75  67  76 VRB6G16   29.93F
TALLAHASSEE    PTSUNNY   79  66  64 SE18G26   29.98F
PERRY          PTSUNNY   82  65  57 SE12G18   29.99F
LIVE OAK       CLOUDY    79  64  61 E12       30.02F
CROSS CITY     PTSUNNY   81  64  57 SE12      29.99F
LAKE CITY      PTSUNNY   73  63  68 E13G23    30.05F
GAINESVILLE    CLOUDY    75  65  70 E17G24    30.08F
WILLISTON      SUNNY     82  68  61 E12       30.02F
PALATKA        PTSUNNY   68  68 100 SE13      30.08F FOG
MAYPORT NAS    CLOUDY    72  65  78 E16       30.10F
JACKSONVILLE   PTSUNNY   73  63  70 SE21G26   30.09F
JAX NAS        LGT RAIN  73  64  73 SE20      30.10F
JAX CECIL      PTSUNNY   75  64  69 SE7       30.09F FOG
FERNANDINA BEA CLOUDY    72  62  71 SE9G20    30.10F
ST AUGUSTINE   LGT RAIN  72  67  84 E14       30.11F
PALM COAST     PTSUNNY   73  66  78 E14G23    30.08F

STATION/POSITION SKY/WX   TEMP    WIND        PRES    WAVE   SWELL
                          AIR SEA DIR/SP/G            HT/PER HT/PER
                          (F)     (DEG/KT/KT) (MB)    (FT/S) (FT/S)
SHELL POINT      NOT AVBL
KEATON BEACH               76     170/ 14/ 15 1015.7F
CEDAR KEY                  78     130/  6/  6 1015.7F
FERNANDINA                 74 66   90/  7/ 12 1020.5F
30.7N   81.3W                 67                N/A     4/ 8
MAYPORT                    71 66  100/ 11/ 13 1019.7F
31.4N   80.9W              67 65   90/  8/ 10 1021.0F   4/ 8   3/ 8
ST AUGUSTINE               70 69  100/ 12/ 13 1019.3F

$$
FLZ040-043>046-052-053-057-058-063-144-222200-
INTERIOR CENTRAL FLORIDA

CITY           SKY/WX    TMP DP  RH WIND       PRES   REMARKS
OCALA          FAIR      79  68  69 MISG      30.03F
LEESBURG       FAIR      79  69  71 E15       30.04F
SANFORD        FAIR      75  68  78 SE15      30.05F
ORLANDO EXEC   FAIR      78  68  71 SE17G25   30.04F
ORLANDO INTL   FAIR      78  68  71 E17       30.04F
KISSIMMEE      PTSUNNY   80  70  71 SE13      30.03F
WINTER HAVEN   HVY RAIN  73  67  81 SE15G29   30.04S
LAKELAND       PTSUNNY   82  68  61 E17       30.00F
BARTOW         TSTM      81  68  65 E14       30.01F
SEBRING        FAIR      84  68  59 E17       30.00F
OKEECHOBEE     FAIR      77  68  73 E6        30.02F

$$
FLZ041-047-054-059-064-141-147-222200-
EAST CENTRAL FLORIDA

CITY           SKY/WX    TMP DP  RH WIND       PRES   REMARKS
ORMOND BEACH   CLOUDY    73  66  78 E12G20    30.08F FOG
DAYTONA BEACH  LGT RAIN  73  69  87 E12G22    30.07F FOG
DELAND         CLOUDY    75  68  78 E16       30.06F
NEW SMYRNA BEA RAIN      70  64  83 S15G31    30.10F FOG
JFK SPACE CTR  FAIR      75  69  80 SE14G21   30.06F
TITUSVILLE     MOSUNNY   79  66  65 SE17      30.07F
CAPE CANAVERAL FAIR      74  70  87 E14       30.05F HAZE
PATRICK AFB    FAIR      76  71  85 E15       30.05F
MELBOURNE      FAIR      79  66  64 E17G25    30.05S
VERO BEACH     FAIR      78  68  71 SE13      30.04F
FT PIERCE      FAIR      76  68  76 SE12      30.04F
STUART         PTSUNNY   77  73  88 E12G17    30.04F

STATION/POSITION SKY/WX   TEMP    WIND        PRES    WAVE   SWELL
                          AIR SEA DIR/SP/G            HT/PER HT/PER
                          (F)     (DEG/KT/KT) (MB)    (FT/S) (FT/S)
28.5N   80.2W              74 72  100/ 17/ 21 1018.4F   8/ 8   2/13
28.9N   78.5W              73 76   90/ 23/ 27 1020.3
TRIDENT PIER               74 76   90/ 11/ 16 1019.5F
28.4N   80.5W                 75                N/A     5/ 8
27.5N   80.2W                 75                N/A     5/ 8

$$
FLZ050-056-061-142-242-148-248-149-249-151-251-155-255-
160-260-222200-
WEST CENTRAL FLORIDA

CITY           SKY/WX    TMP DP  RH WIND       PRES   REMARKS
CRYSTAL RIVER  FAIR      82  66  57 E13       30.00F
INVERNESS      FAIR      82  70  65 E10G17    30.03F
BROOKSVILLE    FAIR      85  68  56 E12G18    29.99F
CLEARWATER AIR FAIR      84  63  48 CALM      29.98F
ST PETE CLEARW FAIR      86  66  51 NE6       29.97F
TAMPA INTL     FAIR      89  63  41 VRB3      29.97F
TAMPA EXEC     FAIR      88  66  48 E8        29.99F
MACDILL AFB    FAIR      84  70  61 S18G24    29.97F
PETER O KNIGHT PTSUNNY   88  64  45 SE7       29.98F
ST PETERSBURG  PTSUNNY   83  69  62 SW9       29.96F
SARASOTA       FAIR      82  72  71 SW10      29.97F
VENICE         FAIR      84  73  70 SW15      29.98F

STATION/POSITION SKY/WX   TEMP    WIND        PRES    WAVE   SWELL
                          AIR SEA DIR/SP/G            HT/PER HT/PER
                          (F)     (DEG/KT/KT) (MB)    (FT/S) (FT/S)
27.3N   84.2W                 74                N/A     3/ 4
CLEARWATER BEACH           79 75  240/  7/  8 1015.4F
MIDDLE TAMPA BAY           78     250/  5/  5 1015.8F
VENICE                     78 77  230/ 12/ 14 1014.8F

$$
FLZ066-069-070-075>078-162-262-165-265-222200-
SOUTHWEST FLORIDA AND KEYS

CITY           SKY/WX    TMP DP  RH WIND       PRES   REMARKS
PUNTA GORDA    FAIR      87  67  51 SW18      29.99F
FT MYERS       FAIR      86  68  54 S15G22    29.96F
SOUTHWEST INTL RAIN      83  61  47 S8        29.97F
NAPLES         FAIR      85  66  53 S10       29.97F
MARCO ISLAND   PTSUNNY   81  70  69 SW6       29.99F
IMMOKALEE      PTSUNNY   75  68  78 NE10      30.01R
MARATHON       FAIR      85  72  65 E10       29.99F
KEY WEST NAS   FAIR      83  73  72 E14       29.98F
KEY WEST INTL  FAIR      83  73  72 E14       29.98F

STATION/POSITION SKY/WX   TEMP    WIND        PRES    WAVE   SWELL
                          AIR SEA DIR/SP/G            HT/PER HT/PER
                          (F)     (DEG/KT/KT) (MB)    (FT/S) (FT/S)
NAPLES                     81 80              1014.9F
26.0N   85.6W              78 79  140/ 14/ 17 1014.3
DRY TORTUGAS               78     110/  9/  9 1015.6F
SAND KEY                   78                 1015.3F
SOMBRERO KEY               78      90/ 13/ 15 1015.4
LONG KEY                   81 83  130/ 11/ 12 1015.1F
MOLASSES REEF              79 79  150/ 11/ 12 1016.8

$$
FLZ067-068-071>074-168-172>174-222200-
SOUTHEAST FLORIDA

CITY           SKY/WX    TMP DP  RH WIND       PRES   REMARKS
W PALM BEACH   PTSUNNY   80  71  74 E20       30.02F
BOCA RATON     PTSUNNY   81  73  78 SE14      30.02F
FT LAUDER-EXEC FAIR      81  73  76 SE17G24   30.01F
FT LAUDERDALE  PTSUNNY   82  74  76 E15       30.00F
POMPANO BEACH  FAIR      79  74  84 E14       30.01F
PEMBROKE PINES PTSUNNY   84  70  62 E15       30.02F
OPA LOCKA      FAIR      82  69  64 SE15G22   30.01F
MIAMI          PTSUNNY   81  69  67 SE12G21   30.01F
WEST KENDALL   FAIR      82  69  64 SE15      30.00F
HOMESTEAD      FAIR      83  71  66 E10       29.99F

STATION/POSITION SKY/WX   TEMP    WIND        PRES    WAVE   SWELL
                          AIR SEA DIR/SP/G            HT/PER HT/PER
                          (F)     (DEG/KT/KT) (MB)    (FT/S) (FT/S)
PORT EVERGLADES            82     100/  4/  8 1016.4
VIRGINIA KEY               80 81   80/  8/ 11 1015.9F
LAKE WORTH                 77 78  130/ 16/ 19 1017.5F
FOWEY ROCKS                79 79  100/ 10/ 11 1016.6F
SETTLEMENT POINT



USA.gov is the U.S. government's official web portal to all federal, state and local government web resources and services.